Location: Decatur Area Astronomy Club
(40.0275°N, 88.7810°W)
Time: 23:42:45
(UTC-06:00)

Amateur Radio Satellites - All Passes

Search period start: 26 January 2015 23:12
Search period end: 27 January 2015 23:12
Location: Decatur Area Astronomy Club, 40.0275°N, 88.7810°W

Satellite Date Start Highest point End Downlink Frequencies (MHz)
Time Altitude Azimuth
VELOX 1 26 Jan 23:18:45 23:19:51 11° 272° (W) 23:20:40 145.980
SWISSCUBE 26 Jan 23:24:42 23:27:36 17° 65° (ENE) 23:30:41 437.505
SPROUT 26 Jan 23:27:53 23:32:12 81° 258° (WSW) 23:36:33 437.525
CUBEBUG 1 26 Jan 23:33:23 23:36:20 17° 269° (W) 23:39:10 437.445
NANOSAT C BR1 26 Jan 23:34:35 23:38:37 38° 288° (WNW) 23:42:35 145.865
BEESAT 26 Jan 23:40:18 23:43:51 22° 67° (ENE) 23:47:33 436.000
ISS 26 Jan 23:41:25 23:44:22 29° 333° (NNW) 23:47:19 145.825
ITUPSAT 1 26 Jan 23:42:23 23:45:59 23° 67° (ENE) 23:49:43 437.325
UNISAT 6 26 Jan 23:43:48 23:47:11 21° 293° (WNW) 23:50:24 437.425
GONETS M04 26 Jan 23:45:40 23:50:27 17° 80° (E) 23:55:47
QB50P2 26 Jan 23:47:33 23:51:17 28° 290° (WNW) 23:54:55 145.880/145.840
QB50P1 26 Jan 23:58:09 00:01:33 22° 292° (WNW) 00:04:51 145.935-145.965
POLYITAN 1 27 Jan 00:11:34 00:14:23 17° 294° (WNW) 00:17:02 437.675
TISAT 1 27 Jan 00:15:33 00:19:01 23° 266° (W) 00:22:25 437.305
BUGSAT 1 27 Jan 00:24:55 00:27:30 15° 294° (WNW) 00:29:56 437.445
KKS-1 27 Jan 00:45:16 00:48:25 20° 67° (ENE) 00:51:41 437.445
STARS 27 Jan 00:46:14 00:48:13 13° 64° (ENE) 00:50:26 437.465
AUBIESAT-1 27 Jan 00:56:26 00:57:23 11° 62° (ENE) 00:58:31 437.475
SWISSCUBE 27 Jan 01:00:27 01:05:06 53° 260° (W) 01:09:46 437.505
O/OREOS (USA 219) 27 Jan 01:02:45 01:04:57 13° 52° (NE) 01:07:20 437.305
Oscar 19 27 Jan 01:04:26 01:09:21 44° 98° (E) 01:14:16 437.125/150
ITAMSAT 1 27 Jan 01:15:23 01:19:03 20° 92° (E) 01:22:53 435.822/435.867
BEESAT 27 Jan 01:17:04 01:21:31 39° 262° (W) 01:25:58 436.000
ITUPSAT 1 27 Jan 01:19:17 01:23:43 38° 263° (W) 01:28:08 437.325
ISS 27 Jan 01:20:19 01:21:43 12° 352° (N) 01:23:06 145.825
GONETS M04 27 Jan 01:37:27 01:46:15 90° 121° (ESE) 01:55:03
M-CUBED/EXP-1 PRIME 27 Jan 01:52:31 01:56:35 54° 70° (ENE) 02:00:21 437.505
Gurwin Techsat 1B 27 Jan 01:56:07 02:00:52 33° 96° (E) 02:05:40 435.225
STARS 27 Jan 02:19:51 02:24:15 61° 259° (W) 02:28:42 437.465
KKS-1 27 Jan 02:20:36 02:24:49 39° 262° (W) 02:29:03 437.445
AIST 2 27 Jan 02:22:16 02:25:02 18° 111° (ESE) 02:27:57 435.215
HORYU 2 27 Jan 02:25:37 02:28:35 18° 92° (E) 02:31:41 437.375
AUBIESAT-1 27 Jan 02:27:55 02:32:02 62° 254° (WSW) 02:35:49 437.475
BEESAT 2 27 Jan 02:38:36 02:42:40 64° 119° (ESE) 02:46:49 435.950
O/OREOS (USA 219) 27 Jan 02:40:22 02:44:57 69° 251° (WSW) 02:49:31 437.305
DANDE 27 Jan 02:43:03 02:47:02 15° 79° (E) 02:51:46 436.750
Oscar 19 27 Jan 02:44:29 02:48:27 22° 294° (WNW) 02:52:16 437.125/150
ITAMSAT 1 27 Jan 02:53:50 02:58:52 49° 289° (WNW) 03:03:53 435.822/435.867
BEESAT 3 27 Jan 02:55:24 02:59:29 73° 303° (WNW) 03:03:39 437.485
ISS 27 Jan 02:57:33 02:59:20 14° 12° (NNE) 03:01:07 145.825
CUSAT 1 27 Jan 03:22:15 03:29:13 36° 88° (E) 03:36:45 437.405
PCSat 27 Jan 03:26:47 03:30:07 17° 106° (ESE) 03:33:43 145.827
M-CUBED/EXP-1 PRIME 27 Jan 03:30:17 03:31:50 12° 263° (W) 03:33:07 437.505
AO-7 27 Jan 03:32:48 03:40:34 42° 98° (E) 03:48:21 29.400- 29.500
Gurwin Techsat 1B 27 Jan 03:36:10 03:40:48 30° 292° (WNW) 03:45:21 435.225
GONETS M04 27 Jan 03:38:36 03:44:32 19° 299° (WNW) 03:50:03
MOZHAYETS 4 27 Jan 03:40:46 03:45:15 54° 74° (ENE) 03:49:45
AIST 2 27 Jan 03:59:16 04:03:21 44° 307° (NW) 04:07:30 435.215
HORYU 2 27 Jan 04:01:18 04:05:29 40° 289° (WNW) 04:09:36 437.375
BEESAT 2 27 Jan 04:18:50 04:21:22 15° 318° (NW) 04:23:49 435.950
DANDE 27 Jan 04:21:20 04:29:14 75° 96° (E) 04:37:58 436.750
RS-15 27 Jan 04:27:25 04:37:40 50° 112° (ESE) 04:48:06 29.354- 29.394
ISS 27 Jan 04:33:20 04:36:31 43° 31° (NNE) 04:39:42 145.825
STRAND 1 27 Jan 04:35:07 04:37:29 14° 62° (ENE) 04:40:06 437.568
JAS-2 27 Jan 04:37:41 04:43:15 67° 102° (ESE) 04:49:32 435.910
BEESAT 3 27 Jan 04:38:02 04:38:28 10° 323° (NW) 04:38:43 437.485
PRISM 27 Jan 04:55:44 04:59:28 35° 72° (ENE) 05:03:15 437.425
CUTE-I 27 Jan 04:59:48 05:02:24 14° 88° (E) 05:05:18 437.470
CUSAT 1 27 Jan 05:04:09 05:12:01 54° 286° (WNW) 05:20:17 437.405
PCSat 27 Jan 05:07:44 05:13:06 62° 301° (WNW) 05:18:30 145.827
MOZHAYETS 4 27 Jan 05:20:21 05:22:53 14° 271° (W) 05:25:13
AO-7 27 Jan 05:25:38 05:33:25 44° 297° (WNW) 05:41:04 29.400- 29.500
CUBESAT XI-V 27 Jan 05:26:10 05:30:36 51° 74° (ENE) 05:35:06 437.345
YUBILEINY 27 Jan 05:46:49 05:54:28 33° 69° (ENE) 06:02:18 435.215
DANDE 27 Jan 06:06:53 06:13:41 27° 297° (WNW) 06:20:33 436.750
ISS 27 Jan 06:10:18 06:12:52 20° 227° (SW) 06:15:21 145.825
STRAND 1 27 Jan 06:11:02 06:16:08 75° 257° (WSW) 06:21:16 437.568
Cubesat XI-IV 27 Jan 06:16:59 06:22:23 77° 102° (ESE) 06:27:46 437.490
JAS-2 27 Jan 06:24:21 06:28:04 18° 295° (WNW) 06:31:46 435.910
PRISM 27 Jan 06:32:18 06:35:09 18° 267° (W) 06:37:53 437.425
CUTE-I 27 Jan 06:37:45 06:43:07 71° 286° (WNW) 06:48:28 437.470
RS-15 27 Jan 06:39:39 06:50:10 49° 315° (NW) 07:00:45 29.354- 29.394
CUSAT 1 27 Jan 06:54:26 06:57:16 11° 307° (NW) 06:59:29 437.405
PCSat 27 Jan 06:55:48 06:57:45 12° 323° (NW) 06:59:28 145.827
CUBESAT XI-V 27 Jan 07:05:46 07:08:27 15° 270° (W) 07:10:57 437.345
CANX-2 27 Jan 07:39:05 07:40:51 13° 89° (E) 07:42:50 2200.000
YUBILEINY 27 Jan 07:43:15 07:51:42 53° 269° (W) 08:00:05 435.215
BRITE-PL 27 Jan 07:55:12 08:00:18 34° 94° (E) 08:05:17 437.365/2234.400
HO-68 27 Jan 07:58:11 08:04:17 31° 95° (E) 08:10:32 435.675
Cubesat XI-IV 27 Jan 07:58:58 08:01:54 15° 298° (WNW) 08:04:36 437.490
AAUSAT CUBESAT 2 27 Jan 08:00:17 08:01:45 12° 89° (E) 08:03:27 437.432
CUTE 1.7 + AOD 2 27 Jan 08:02:25 08:05:38 22° 93° (E) 08:08:57 437.475
GOMX 1 27 Jan 08:02:57 08:07:30 27° 92° (E) 08:11:58 467.674
TIGRISAT 27 Jan 08:17:23 08:17:37 10° 62° (ENE) 08:18:07 435.000
VERMONT LUNAR 27 Jan 08:22:28 08:24:37 16° 148° (SSE) 08:26:50 437.305
DOVE 4 27 Jan 08:26:06 08:30:43 32° 94° (E) 08:35:12 437.250
CINEMA 3 27 Jan 08:31:03 08:34:24 19° 90° (E) 08:37:49 145.822/145.860
SEEDS 27 Jan 08:35:46 08:39:47 44° 98° (E) 08:43:47 437.485
DX 1 27 Jan 08:48:51 08:50:33 12° 89° (E) 08:52:29 434.975-435.025
NANOSAT C BR1 27 Jan 08:53:09 08:55:06 13° 65° (ENE) 08:57:14 145.865
FUNcube-1 27 Jan 08:54:01 08:55:23 11° 87° (E) 08:56:59 145.935
RS-15 27 Jan 08:58:30 09:06:15 21° 346° (NNW) 09:14:00 29.354- 29.394
UNISAT 6 27 Jan 09:04:45 09:08:55 32° 70° (ENE) 09:13:07 437.425
QB50P2 27 Jan 09:05:06 09:07:58 18° 67° (ENE) 09:10:59 145.880/145.840
COMPASS 1 27 Jan 09:05:33 09:09:45 83° 102° (ESE) 09:13:55 437.405
UWE-3 27 Jan 09:06:50 09:10:11 21° 92° (E) 09:13:34 435.000/436.395/437.385
PHONESAT 2.4 27 Jan 09:07:11 09:09:50 20° 150° (SSE) 09:12:33 2401.200-2431.200
CANX-2 27 Jan 09:13:05 09:17:12 51° 286° (WNW) 09:21:17 2200.000
QB50P1 27 Jan 09:14:47 09:18:05 23° 68° (ENE) 09:21:29 145.935-145.965
POLYITAN 1 27 Jan 09:27:26 09:31:13 31° 70° (ENE) 09:35:05 437.675
Oscar 11 27 Jan 09:30:41 09:34:59 65° 101° (E) 09:39:15 145.826/435.025
VELOX 1 27 Jan 09:31:28 09:33:38 14° 90° (E) 09:36:01 145.980
BRITE-PL 27 Jan 09:33:39 09:38:46 34° 291° (WNW) 09:43:39 437.365/2234.400
AAUSAT CUBESAT 2 27 Jan 09:33:46 09:37:50 52° 286° (WNW) 09:41:50 437.432
CUTE 1.7 + AOD 2 27 Jan 09:37:55 09:41:39 30° 289° (WNW) 09:45:18 437.475
BUGSAT 1 27 Jan 09:38:13 09:41:46 30° 70° (ENE) 09:45:25 437.445
ANTELSAT 27 Jan 09:39:54 09:44:37 75° 76° (ENE) 09:49:21 437.575/2403.000
GOMX 1 27 Jan 09:40:41 09:45:43 38° 290° (WNW) 09:50:32 467.674
DELFI C3 27 Jan 09:41:50 09:45:53 72° 102° (ESE) 09:49:54 145.870
HO-68 27 Jan 09:45:26 09:52:18 50° 292° (WNW) 09:59:06 435.675
SO-50 27 Jan 09:45:48 09:49:12 22° 112° (ESE) 09:52:48 436.795
POPSAT HIP 1 27 Jan 09:48:18 09:52:27 52° 74° (ENE) 09:56:40 437.405
TIGRISAT 27 Jan 09:49:01 09:53:44 90° 257° (WSW) 09:58:28 435.000
DUCHIFAT 1 27 Jan 09:52:17 09:56:27 58° 74° (ENE) 10:00:41 145.980
CUBEBUG 2 27 Jan 09:57:32 10:02:11 90° 98° (E) 10:06:38 437.445
VERMONT LUNAR 27 Jan 09:58:54 10:02:20 58° 163° (SSE) 10:05:49 437.305
DOVE 4 27 Jan 10:03:50 10:08:25 31° 291° (WNW) 10:12:47 437.250
UKube-1 27 Jan 10:04:44 10:09:08 85° 103° (ESE) 10:13:29 .
CINEMA 3 27 Jan 10:07:15 10:11:55 44° 288° (WNW) 10:16:21 145.822/145.860
SEEDS 27 Jan 10:12:45 10:15:19 16° 293° (WNW) 10:17:43 437.485
ZACube-1 27 Jan 10:15:03 10:19:33 83° 281° (W) 10:23:54 437.345
DX 1 27 Jan 10:22:55 10:27:15 58° 286° (WNW) 10:31:33 434.975-435.025
NANOSAT C BR1 27 Jan 10:26:22 10:30:33 56° 260° (W) 10:34:47 145.865
FUNcube-1 27 Jan 10:27:52 10:32:17 61° 285° (WNW) 10:36:32 145.935
50 SAT 27 Jan 10:32:21 10:36:24 62° 100° (E) 10:40:23 437.505
ESTCUBE 1 27 Jan 10:32:44 10:36:37 28° 95° (E) 10:40:34 437.505/2401.250
HUMSAT D 27 Jan 10:35:31 10:39:48 89° 285° (WNW) 10:44:00 437.325/437.525
AISAT 27 Jan 10:36:38 10:41:11 74° 103° (ESE) 10:45:40 437.250
QB50P2 27 Jan 10:39:38 10:43:38 38° 262° (W) 10:47:41 145.880/145.840
UNISAT 6 27 Jan 10:41:46 10:45:44 25° 266° (W) 10:49:37 437.425
UWE-3 27 Jan 10:42:44 10:46:53 35° 289° (WNW) 10:50:52 435.000/436.395/437.385
PHONESAT 2.4 27 Jan 10:44:28 10:48:04 67° 165° (SSE) 10:51:42 2401.200-2431.200
AIST 2 27 Jan 10:44:39 10:46:40 13° 40° (NE) 10:48:50 435.215
QB50P1 27 Jan 10:50:04 10:53:51 30° 264° (W) 10:57:38 145.935-145.965
BEESAT 2 27 Jan 10:59:18 11:03:07 33° 51° (NE) 11:06:54 435.950
POLYITAN 1 27 Jan 11:03:52 11:07:14 22° 267° (W) 11:10:33 437.675
VELOX 1 27 Jan 11:06:13 11:10:38 54° 287° (WNW) 11:15:00 145.980
Oscar 11 27 Jan 11:09:05 11:10:42 12° 296° (WNW) 11:12:05 145.826/435.025
BUGSAT 1 27 Jan 11:14:13 11:17:21 20° 267° (W) 11:20:25 437.445
BEESAT 3 27 Jan 11:15:33 11:19:39 54° 55° (NE) 11:23:41 437.485
RS-15 27 Jan 11:15:49 11:24:08 23° 21° (NNE) 11:32:56 29.354- 29.394
SPROUT 27 Jan 11:16:22 11:19:23 19° 92° (E) 11:22:31 437.525
ANTELSAT 27 Jan 11:20:49 11:22:03 11° 273° (W) 11:22:57 437.575/2403.000
CUBEBUG 1 27 Jan 11:21:13 11:25:41 90° 316° (NW) 11:30:09 437.445
AIST 1 27 Jan 11:23:32 11:27:46 80° 97° (E) 11:32:03
SO-50 27 Jan 11:25:08 11:29:29 42° 308° (NW) 11:34:00 436.795
POPSAT HIP 1 27 Jan 11:26:43 11:28:46 13° 271° (W) 11:30:35 437.405
DUCHIFAT 1 27 Jan 11:31:13 11:32:47 11° 271° (W) 11:34:06 145.980
VERMONT LUNAR 27 Jan 11:36:56 11:40:28 80° 360° (N) 11:44:00 437.305
GONETS M04 27 Jan 11:48:49 11:56:57 44° 73° (ENE) 12:05:11
TISAT 1 27 Jan 12:00:09 12:04:24 56° 100° (E) 12:08:37 437.305
ESTCUBE 1 27 Jan 12:09:38 12:13:28 27° 291° (WNW) 12:17:12 437.505/2401.250
50 SAT 27 Jan 12:09:55 12:11:04 11° 295° (WNW) 12:11:59 437.505
PCSat 27 Jan 12:14:15 12:17:26 16° 41° (NE) 12:20:46 145.827
AISAT 27 Jan 12:15:42 12:17:16 11° 297° (WNW) 12:18:35 437.250
Oscar 19 27 Jan 12:20:29 12:25:35 61° 73° (ENE) 12:30:44 437.125/150
AIST 2 27 Jan 12:21:38 12:25:57 83° 238° (WSW) 12:30:09 435.215
PHONESAT 2.4 27 Jan 12:23:01 12:26:40 81° 1° (N) 12:30:20 2401.200-2431.200
ITAMSAT 1 27 Jan 12:32:40 12:36:59 29° 68° (ENE) 12:41:26 435.822/435.867
BEESAT 2 27 Jan 12:37:52 12:41:12 23° 247° (WSW) 12:44:23 435.950
AO-7 27 Jan 12:45:05 12:47:40 12° 46° (NE) 12:50:47 29.400- 29.500
SPROUT 27 Jan 12:51:38 12:55:39 37° 288° (WNW) 12:59:38 437.525
BEESAT 3 27 Jan 12:55:19 12:57:23 13° 250° (WSW) 12:59:15 437.485
SWISSCUBE 27 Jan 13:01:33 13:06:03 40° 98° (E) 13:10:34 437.505
VERMONT LUNAR 27 Jan 13:15:06 13:18:36 64° 196° (SSW) 13:22:06 437.305
Gurwin Techsat 1B 27 Jan 13:16:28 13:21:33 49° 72° (ENE) 13:26:41 435.225
BEESAT 27 Jan 13:17:39 13:22:21 55° 100° (E) 13:27:02 436.000
ITUPSAT 1 27 Jan 13:20:10 13:24:54 58° 101° (E) 13:29:37 437.325
HORYU 2 27 Jan 13:24:02 13:26:51 17° 66° (ENE) 13:29:49 437.375
RS-15 27 Jan 13:28:27 13:39:37 61° 50° (NE) 13:51:21 29.354- 29.394
TISAT 1 27 Jan 13:37:40 13:39:49 13° 295° (WNW) 13:41:45 437.305
GONETS M04 27 Jan 13:45:51 13:53:46 40° 272° (W) 14:01:32
PCSat 27 Jan 13:56:14 14:01:42 90° 259° (WSW) 14:07:08 145.827
PHONESAT 2.4 27 Jan 14:01:38 14:05:13 57° 199° (SSW) 14:08:50 2401.200-2431.200
Oscar 19 27 Jan 14:02:17 14:05:27 16° 271° (W) 14:08:22 437.125/150
CUSAT 1 27 Jan 14:06:17 14:10:53 20° 60° (ENE) 14:14:52 437.405
STARS 27 Jan 14:11:02 14:14:44 25° 95° (E) 14:18:27 437.465
ITAMSAT 1 27 Jan 14:11:44 14:16:25 34° 264° (W) 14:21:06 435.822/435.867
KKS-1 27 Jan 14:12:20 14:16:35 40° 98° (E) 14:20:49 437.445
AO-7 27 Jan 14:30:47 14:38:49 55° 66° (ENE) 14:46:56 29.400- 29.500
SWISSCUBE 27 Jan 14:40:04 14:43:41 21° 294° (WNW) 14:47:12 437.505
JAS-2 27 Jan 14:51:11 14:55:26 24° 67° (ENE) 14:59:36 435.910
VERMONT LUNAR 27 Jan 14:53:50 14:56:23 18° 211° (SSW) 14:58:52 437.305
BEESAT 27 Jan 14:56:49 14:59:49 16° 296° (WNW) 15:02:38 436.000
Gurwin Techsat 1B 27 Jan 14:57:57 15:01:52 20° 269° (W) 15:05:38 435.225
HORYU 2 27 Jan 14:58:51 15:03:12 47° 261° (W) 15:07:34 437.375
ITUPSAT 1 27 Jan 14:59:28 15:02:23 16° 296° (WNW) 15:05:08 437.325
DANDE 27 Jan 15:08:16 15:15:10 58° 74° (ENE) 15:20:20 436.750
M-CUBED/EXP-1 PRIME 27 Jan 15:10:09 15:13:20 41° 105° (ESE) 15:16:34 437.505
O/OREOS (USA 219) 27 Jan 15:14:58 15:17:17 14° 100° (E) 15:19:49 437.305
MOZHAYETS 4 27 Jan 15:38:23 15:40:30 13° 89° (E) 15:42:51
PHONESAT 2.4 27 Jan 15:41:05 15:43:24 16° 212° (SSW) 15:45:39 2401.200-2431.200
RS-15 27 Jan 15:41:20 15:51:46 41° 251° (WSW) 16:02:22 29.354- 29.394
PCSat 27 Jan 15:42:54 15:44:26 11° 256° (WSW) 15:45:37 145.827
AUBIESAT-1 27 Jan 15:44:58 15:48:17 68° 288° (WNW) 15:51:38 437.475
STARS 27 Jan 15:47:21 15:51:13 28° 290° (WNW) 15:54:58 437.465
CUSAT 1 27 Jan 15:48:27 15:54:44 53° 267° (W) 15:59:23 437.405
KKS-1 27 Jan 15:49:45 15:52:59 19° 294° (WNW) 15:56:05 437.445
Cubesat XI-IV 27 Jan 16:01:18 16:04:15 16° 62° (ENE) 16:07:27 437.490
CUTE-I 27 Jan 16:20:38 16:24:40 23° 65° (ENE) 16:28:51 437.470
AO-7 27 Jan 16:24:32 16:31:58 33° 264° (W) 16:39:15 29.400- 29.500
JAS-2 27 Jan 16:35:07 16:40:27 41° 262° (W) 16:45:23 435.910
M-CUBED/EXP-1 PRIME 27 Jan 16:47:19 16:48:04 10° 298° (WNW) 16:48:39 437.505
O/OREOS (USA 219) 27 Jan 16:51:56 16:56:18 50° 296° (WNW) 17:00:44 437.305
DANDE 27 Jan 16:53:08 16:57:43 19° 279° (W) 17:01:22 436.750
MOZHAYETS 4 27 Jan 17:13:42 17:18:11 56° 286° (WNW) 17:22:38
CUBESAT XI-V 27 Jan 17:25:09 17:27:28 14° 89° (E) 17:30:02 437.345
Cubesat XI-IV 27 Jan 17:38:33 17:43:50 70° 257° (WSW) 17:49:11 437.490
CUTE-I 27 Jan 17:59:24 18:04:29 45° 261° (W) 18:09:36 437.470
PRISM 27 Jan 18:14:10 18:18:18 66° 102° (ESE) 18:22:26 437.425
SO-50 27 Jan 18:17:06 18:20:51 22° 43° (NE) 18:24:42 436.795
STRAND 1 27 Jan 18:22:25 18:27:12 39° 97° (E) 18:32:01 437.568
HO-68 27 Jan 18:27:15 18:32:26 23° 59° (ENE) 18:37:50 435.675
YUBILEINY 27 Jan 18:47:10 18:54:52 39° 87° (E) 19:02:44 435.215
CUTE 1.7 + AOD 2 27 Jan 18:55:44 18:58:16 16° 67° (ENE) 19:00:59 437.475
CUBESAT XI-V 27 Jan 19:00:45 19:05:22 57° 286° (WNW) 19:09:58 437.345
BRITE-PL 27 Jan 19:05:17 19:09:42 33° 69° (ENE) 19:14:30 437.365/2234.400
GOMX 1 27 Jan 19:10:20 19:14:28 27° 67° (ENE) 19:18:55 467.674
SEEDS 27 Jan 19:27:39 19:31:21 29° 71° (ENE) 19:35:04 437.485
DOVE 4 27 Jan 19:30:52 19:35:11 30° 68° (ENE) 19:39:45 437.250
CINEMA 3 27 Jan 19:32:22 19:35:38 18° 65° (ENE) 19:39:06 145.822/145.860
DX 1 27 Jan 19:45:17 19:46:19 11° 63° (ENE) 19:47:37 434.975-435.025
FUNcube-1 27 Jan 19:50:49 19:51:22 10° 63° (ENE) 19:52:11 145.935
PRISM 27 Jan 19:52:12 19:53:22 11° 296° (WNW) 19:54:19 437.425
COMPASS 1 27 Jan 19:56:20 20:00:26 51° 74° (ENE) 20:04:34 437.405
SO-50 27 Jan 19:56:57 20:01:48 57° 242° (WSW) 20:06:37 436.795
STRAND 1 27 Jan 20:02:02 20:06:15 25° 293° (WNW) 20:10:20 437.568
UWE-3 27 Jan 20:03:50 20:06:55 18° 66° (ENE) 20:10:11 435.000/436.395/437.385
CANX-2 27 Jan 20:05:05 20:09:24 79° 257° (WSW) 20:13:43 2200.000
HO-68 27 Jan 20:12:26 20:19:35 71° 256° (WSW) 20:26:44 435.675
AAUSAT CUBESAT 2 27 Jan 20:23:54 20:28:07 86° 258° (WSW) 20:32:21 437.432
Oscar 11 27 Jan 20:24:47 20:28:56 46° 73° (ENE) 20:33:08 145.826/435.025
DELFI C3 27 Jan 20:29:31 20:33:20 40° 73° (ENE) 20:37:11 145.870
CUTE 1.7 + AOD 2 27 Jan 20:29:46 20:33:54 45° 262° (W) 20:38:02 437.475
VELOX 1 27 Jan 20:29:46 20:31:30 12° 64° (ENE) 20:33:27 145.980
YUBILEINY 27 Jan 20:43:21 20:51:36 45° 286° (WNW) 20:59:49 435.215
BRITE-PL 27 Jan 20:43:55 20:48:15 29° 267° (W) 20:52:49 437.365/2234.400
GOMX 1 27 Jan 20:47:47 20:52:25 37° 265° (W) 20:57:18 467.674
CUBEBUG 2 27 Jan 20:54:37 20:59:20 70° 75° (ENE) 21:04:08 437.445
UKube-1 27 Jan 20:59:01 21:03:18 67° 75° (ENE) 21:07:38 .
SEEDS 27 Jan 21:03:48 21:07:12 22° 266° (W) 21:10:33 437.485
CINEMA 3 27 Jan 21:07:39 21:12:26 52° 261° (W) 21:17:21 145.822/145.860
DOVE 4 27 Jan 21:08:26 21:12:53 32° 266° (W) 21:17:29 437.250
ZACube-1 27 Jan 21:09:58 21:14:32 72° 77° (ENE) 21:19:11 437.345
ISS 27 Jan 21:13:56 21:16:11 18° 132° (SE) 21:18:30 145.825
DX 1 27 Jan 21:17:43 21:22:03 72° 258° (WSW) 21:26:26 434.975-435.025
50 SAT 27 Jan 21:19:16 21:23:01 35° 72° (ENE) 21:26:50 437.505
FUNcube-1 27 Jan 21:22:31 21:27:07 85° 257° (WSW) 21:31:45 145.935
HUMSAT D 27 Jan 21:26:40 21:30:57 59° 74° (ENE) 21:35:15 437.325/437.525
AIST 1 27 Jan 21:32:16 21:35:16 19° 71° (ENE) 21:38:25
ESTCUBE 1 27 Jan 21:32:16 21:35:53 25° 69° (ENE) 21:39:35 437.505/2401.250
AISAT 27 Jan 21:34:01 21:38:23 61° 74° (ENE) 21:42:50 437.250
ANTELSAT 27 Jan 21:34:27 21:37:06 16° 90° (E) 21:39:53 437.575/2403.000
COMPASS 1 27 Jan 21:34:33 21:36:33 13° 271° (W) 21:38:19 437.405
UWE-3 27 Jan 21:38:38 21:43:08 47° 262° (W) 21:47:42 435.000/436.395/437.385
TIGRISAT 27 Jan 21:42:51 21:46:00 19° 92° (E) 21:49:13 435.000
Oscar 11 27 Jan 22:02:50 22:05:26 15° 270° (W) 22:07:52 145.826/435.025
VELOX 1 27 Jan 22:03:13 22:07:37 65° 259° (W) 22:12:03 145.980
DELFI C3 27 Jan 22:06:21 22:08:50 15° 269° (W) 22:11:08 145.870
HO-68 27 Jan 22:07:27 22:08:44 10° 276° (W) 22:09:22 435.675
SPROUT 27 Jan 22:11:07 22:13:22 14° 66° (ENE) 22:15:48 437.525
NANOSAT C BR1 27 Jan 22:12:48 22:16:18 24° 94° (E) 22:19:50 145.865
CUBEBUG 1 27 Jan 22:16:46 22:21:05 69° 75° (ENE) 22:25:26 437.445
QB50P2 27 Jan 22:25:48 22:29:46 35° 97° (E) 22:33:42 145.880/145.840
UNISAT 6 27 Jan 22:33:54 22:38:24 74° 102° (ESE) 22:42:45 437.425
CUBEBUG 2 27 Jan 22:34:49 22:36:38 12° 273° (W) 22:38:10 437.445
QB50P1 27 Jan 22:35:37 22:39:45 44° 99° (E) 22:43:52 145.935-145.965
UKube-1 27 Jan 22:39:27 22:40:02 10° 272° (W) 22:40:19 .
POLYITAN 1 27 Jan 22:49:09 22:53:28 65° 101° (E) 22:57:44 437.675
ISS 27 Jan 22:49:16 22:52:28 48° 327° (NNW) 22:55:41 145.825
ZACube-1 27 Jan 22:50:18 22:51:32 11° 273° (W) 22:52:26 437.345
TISAT 1 27 Jan 22:52:07 22:56:02 38° 72° (ENE) 23:00:02 437.305
50 SAT 27 Jan 22:55:25 22:58:19 18° 268° (W) 23:01:05 437.505
BUGSAT 1 27 Jan 22:56:02 23:00:17 59° 100° (E) 23:04:31 437.445
HUMSAT D 27 Jan 23:05:31 23:07:13 12° 272° (W) 23:08:39 437.325/437.525
